Weather History for KLNC - April, 2013

Change the Weather History Date:

Wednesday, April 3, 2013

  Actual Average (KRBD) Record (KRBD)
Temperature  
Mean Temperature 48 °F -  
Max Temperature 51 °F 70 °F 84 °F (2011)
Min Temperature 45 °F 51 °F 39 °F (2009)
Degree Days  
Heating Degree Days 17    
Moisture  
Dew Point 46 °F    
Average Humidity 93    
Maximum Humidity 98    
Minimum Humidity 78    
Precipitation  
Precipitation 0.81 in - - ()
Sea Level Pressure  
Sea Level Pressure 30.07 in    
Wind  
Wind Speed 10 mph (NNE)    
Max Wind Speed 17 mph    
Max Gust Speed 22 mph    
Visibility 7 miles    
Events Rain , Thunderstorm    
Averages and records for this station are not official NWS values.
T = Trace of Precipitation, MM = Missing Value Source: NWS Daily Summary

Daily Weather History Graph

Daily Weather History Graph

Search for Another Location

Airport or City:

Trip Planner

Search our weather history database for the weather conditions in past years. The results will help you decide how hot, cold, wet, or windy it might be!

Date:

Astronomy

Apr. 03, 2013 Rise Set
Actual Time 7:12 AM CDT 7:48 PM CDT
Civil Twilight 6:47 AM CDT 8:13 PM CDT
Nautical Twilight 6:18 AM CDT 8:42 PM CDT
Astronomical Twilight 5:48 AM CDT 9:12 PM CDT
Moon 2:32 AM CDT (4/3) 1:22 PM CDT (4/3)
Length of Visible Light 13h 26m
Length of Day
12h 36m
Last Quarter, 44% of the Moon is Illuminated
Apr 3
Last Quarter
Apr 10
New
Apr 18
First Quarter
Apr 25
Full
May 2
Last Quarter

Hourly Weather History & Observations

Time (CDT) Temp. Windchill Dew Point Humidity Pressure Visibility Wind Dir Wind Speed Gust Speed Precip Events Conditions
12:15 AM 49.6 °F - 43.9 °F 81% 30.00 in 10.0 mi ENE 11.5 mph - N/A   Drizzle
12:35 AM 50.4 °F - 43.7 °F 78% 30.00 in 10.0 mi East 11.5 mph 20.7 mph N/A   Overcast
12:55 AM 49.6 °F - 44.6 °F 83% 29.99 in 7.0 mi East 11.5 mph 16.1 mph N/A   Drizzle
1:15 AM 49.6 °F - 45.0 °F 84% 29.99 in 10.0 mi East 9.2 mph 16.1 mph N/A   Drizzle
1:35 AM 50.0 °F - 45.7 °F 85% 29.98 in 10.0 mi East 8.1 mph - 0.01 in Rain Rain
1:55 AM 50.7 °F - 45.1 °F 81% 29.98 in 10.0 mi ESE 12.7 mph - 0.04 in Rain Light Rain
2:15 AM 51.1 °F - 45.9 °F 82% 29.97 in 10.0 mi East 11.5 mph 19.6 mph 0.01 in Rain Rain
2:35 AM 50.5 °F - 46.9 °F 87% 29.98 in 7.0 mi East 12.7 mph - 0.01 in   Light Drizzle
2:55 AM 50.4 °F - 47.7 °F 90% 30.02 in 7.0 mi NNW 8.1 mph - 0.01 in   Drizzle
3:15 AM 50.0 °F - 48.0 °F 93% 30.04 in 5.0 mi WNW 11.5 mph - 0.01 in Rain Rain
3:35 AM 50.0 °F - 48.6 °F 95% 30.05 in 4.0 mi West 9.2 mph - 0.07 in Rain Heavy Rain
3:55 AM 50.2 °F - 49.3 °F 97% 30.05 in 4.0 mi NW 5.8 mph - 0.14 in Rain Rain
4:15 AM 50.2 °F - 49.1 °F 96% 30.05 in 5.0 mi NNW 6.9 mph - 0.06 in Rain Rain
4:35 AM 50.4 °F - 49.3 °F 96% 30.05 in 5.0 mi North 8.1 mph - 0.09 in Rain Rain
4:55 AM 50.0 °F - 49.3 °F 97% 30.05 in 5.0 mi North 11.5 mph - 0.14 in Rain Heavy Rain
5:15 AM 49.1 °F - 48.0 °F 96% 30.05 in 5.0 mi NNE 9.2 mph - 0.04 in Rain Heavy Rain
5:35 AM 48.2 °F - 47.3 °F 97% 30.04 in 5.0 mi NE 11.5 mph - 0.09 in Rain Rain
5:55 AM 48.0 °F - 47.3 °F 97% 30.03 in 5.0 mi NE 10.4 mph - 0.14 in Rain Rain
6:15 AM 47.8 °F - 47.3 °F 98% 30.00 in 5.0 mi East 17.3 mph 21.9 mph 0.02 in Rain Light Rain
6:35 AM 48.2 °F - 46.4 °F 93% 29.99 in 7.0 mi East 15.0 mph - N/A Rain Light Rain
6:55 AM 46.9 °F - 46.2 °F 97% 29.97 in 7.0 mi East 17.3 mph - 0.05 in Rain Rain
7:15 AM 46.9 °F - 46.4 °F 98% 29.97 in 10.0 mi East 11.5 mph - N/A Rain Rain
7:35 AM 47.3 °F - 46.4 °F 97% 30.02 in 10.0 mi North 8.1 mph 16.1 mph 0.01 in Rain Rain
7:55 AM 47.3 °F - 46.4 °F 97% 30.05 in 10.0 mi North 17.3 mph - 0.02 in Rain Rain
8:15 AM 47.5 °F - 46.4 °F 96% 30.07 in 10.0 mi North 11.5 mph - N/A Rain Light Rain
8:35 AM 46.9 °F - 45.7 °F 95% 30.07 in 10.0 mi North 13.8 mph 19.6 mph N/A   Overcast
8:55 AM 46.2 °F 41.2 °F 45.0 °F 95% 30.08 in 10.0 mi North 10.4 mph - N/A   Overcast
9:15 AM 45.7 °F 40.6 °F 44.2 °F 95% 30.09 in 10.0 mi NNE 10.4 mph 16.1 mph N/A   Overcast
9:35 AM 45.7 °F 41.0 °F 44.2 °F 95% 30.10 in 10.0 mi NNE 9.2 mph - N/A   Overcast
9:55 AM 45.9 °F 42.3 °F 44.6 °F 95% 30.10 in 10.0 mi NE 6.9 mph - N/A   Overcast
10:15 AM 45.9 °F 42.9 °F 44.6 °F 95% 30.10 in 10.0 mi NNE 5.8 mph - N/A   Overcast
10:35 AM 45.9 °F 40.8 °F 44.2 °F 94% 30.10 in 10.0 mi NNE 10.4 mph - N/A   Overcast
10:55 AM 45.9 °F 41.7 °F 44.2 °F 94% 30.11 in 10.0 mi NNE 8.1 mph - N/A   Overcast
11:15 AM 45.7 °F 41.0 °F 44.1 °F 94% 30.11 in 7.0 mi NE 9.2 mph - N/A   Overcast
11:35 AM 45.9 °F 41.7 °F 44.1 °F 93% 30.12 in 7.0 mi NNE 8.1 mph - N/A   Overcast
11:55 AM 45.9 °F 41.7 °F 43.7 °F 92% 30.12 in 7.0 mi NNE 8.1 mph - N/A   Overcast
12:15 PM 46.4 °F 42.4 °F 43.9 °F 91% 30.11 in 7.0 mi NE 8.1 mph - N/A   Overcast
12:35 PM 46.4 °F 41.9 °F 43.9 °F 91% 30.10 in 7.0 mi NE 9.2 mph - N/A   Overcast
12:55 PM 46.4 °F 42.4 °F 44.1 °F 92% 30.11 in 4.0 mi NNE 8.1 mph - N/A   Overcast
1:15 PM 46.6 °F - 44.4 °F 92% 30.10 in 4.0 mi NNE 9.2 mph - N/A   Overcast
1:35 PM 46.8 °F - 44.8 °F 93% 30.10 in 3.0 mi NNE 8.1 mph - N/A   Overcast
1:55 PM 46.9 °F - 45.5 °F 95% 30.10 in 3.0 mi NE 8.1 mph - N/A   Overcast
2:15 PM 46.8 °F - 45.7 °F 96% 30.10 in 1.8 mi NNE 6.9 mph - N/A   Overcast
2:35 PM 46.9 °F - 45.7 °F 95% 30.10 in 2.0 mi NNE 6.9 mph - N/A   Overcast
2:55 PM 47.3 °F - 45.9 °F 95% 30.08 in 4.0 mi NE 12.7 mph - N/A   Overcast
3:15 PM 47.5 °F - 45.7 °F 93% 30.07 in 5.0 mi NE 9.2 mph - N/A   Overcast
3:35 PM 48.2 °F - 45.3 °F 90% 30.08 in 7.0 mi NE 6.9 mph - N/A   Overcast
3:55 PM 48.4 °F - 45.3 °F 89% 30.08 in 10.0 mi North 9.2 mph - N/A   Overcast
4:15 PM 48.6 °F - 45.5 °F 89% 30.09 in 10.0 mi North 6.9 mph - N/A   Overcast
4:35 PM 48.6 °F - 45.3 °F 89% 30.10 in 10.0 mi NW 8.1 mph - N/A   Overcast
4:55 PM 48.6 °F - 44.8 °F 87% 30.10 in 7.0 mi NNW 8.1 mph - N/A   Overcast
5:15 PM 48.6 °F - 45.5 °F 89% 30.09 in 4.0 mi North 9.2 mph - N/A   Overcast
5:35 PM 48.4 °F - 45.0 °F 88% 30.08 in 7.0 mi North 12.7 mph - N/A   Overcast
5:55 PM 48.2 °F - 45.7 °F 91% 30.08 in 4.0 mi North 10.4 mph - N/A Thunderstorm Overcast
6:15 PM 48.2 °F - 45.7 °F 91% 30.08 in 5.0 mi North 10.4 mph - N/A Rain Light Rain
6:35 PM 47.8 °F - 46.4 °F 95% 30.07 in 3.0 mi NNE 5.8 mph - 0.03 in Rain Heavy Rain
6:55 PM 47.7 °F - 46.4 °F 95% 30.08 in 3.0 mi North 6.9 mph - 0.11 in Rain Rain
7:15 PM 47.5 °F - 46.4 °F 96% 30.08 in 4.0 mi North 3.5 mph - 0.04 in Rain Heavy Rain
7:35 PM 47.5 °F - 46.6 °F 97% 30.09 in 4.0 mi North 6.9 mph - 0.08 in Rain Rain
7:55 PM 47.3 °F - 46.0 °F 95% 30.09 in 4.0 mi North 8.1 mph - 0.12 in Rain Rain
8:15 PM 46.9 °F - 45.5 °F 95% 30.11 in 5.0 mi NNW 3.5 mph - 0.02 in Rain Rain
8:35 PM 47.3 °F - 46.0 °F 95% 30.12 in 5.0 mi NNE 4.6 mph - 0.03 in Rain Rain
8:55 PM 47.3 °F - 45.9 °F 95% 30.12 in 7.0 mi North 6.9 mph - 0.03 in   Light Drizzle
9:15 PM 46.8 °F - 45.5 °F 95% 30.13 in 10.0 mi NNE 5.8 mph - N/A   Overcast
9:35 PM 46.6 °F - 45.0 °F 94% 30.13 in 10.0 mi North 5.8 mph - N/A   Overcast
9:55 PM 46.8 °F - 45.3 °F 95% 30.15 in 10.0 mi NNE 3.5 mph - N/A   Overcast
10:15 PM 46.8 °F - 45.5 °F 95% 30.15 in 10.0 mi NE 6.9 mph - N/A   Overcast
10:35 PM 46.9 °F - 45.5 °F 95% 30.16 in 7.0 mi Calm Calm - N/A   Drizzle
10:55 PM 46.8 °F - 44.6 °F 92% 30.16 in 10.0 mi NNE 6.9 mph - N/A   Overcast
11:15 PM 46.6 °F - 43.7 °F 90% 30.16 in 10.0 mi NNE 5.8 mph - N/A   Overcast
11:35 PM 46.0 °F 43.1 °F 42.8 °F 88% 30.16 in 10.0 mi NE 5.8 mph - N/A   Overcast
11:55 PM 45.9 °F 43.6 °F 43.0 °F 90% 30.16 in 10.0 mi NNE 4.6 mph - 0.01 in Rain Rain